Simultaneous Nadir Overpasses (SNOs) Predictions

Prediction of SNOs between AQUA and NOAA-19 Satellite Orbit:

Table of predicted SNOs for the next 14.0 days since TLE Epoch: 4/27/2018
Index Date (AQUA) Time (AQUA) Lat,Lon (AQUA) SZA (AQUA ) Date (NOAA-19) Time (NOAA-19) Lat,Lon (NOAA-19) SZA (NOAA-19 ) Distance(km) Time Diff (sec)
1 04/28/2018 17:50:12 -80.83, 53.87 111.49 04/28/2018 17:49:21 -80.83, 54.01 111.49 2.59 51
2 04/28/2018 18:39:39 80.83,-138.44 68.50 04/28/2018 18:40:22 80.83,-138.44 68.48 0.49 43
3 04/30/2018 23:23:54 80.82, 150.59 67.80 04/30/2018 23:22:59 80.83, 150.67 67.82 1.52 55
4 05/01/2018 00:13:20 -80.82, -41.82 112.21 05/01/2018 00:13:58 -80.83, -41.72 112.23 2.05 38
5 05/03/2018 04:57:35 -80.82,-112.82 112.88 05/03/2018 04:56:36 -80.82,-112.78 112.85 0.85 59
6 05/03/2018 05:47:03 80.84, 54.52 67.17 05/03/2018 05:47:36 80.83, 54.68 67.12 3.30 33
7 05/05/2018 10:31:17 80.81, -16.17 66.47 05/05/2018 10:30:13 80.82, -16.27 66.51 1.92 64
8 05/05/2018 11:20:43 -80.82, 151.43 113.54 05/05/2018 11:21:13 -80.83, 151.44 113.54 1.48 30
9 05/07/2018 16:04:58 -80.82, 80.38 114.16 05/07/2018 16:03:51 -80.82, 80.33 114.12 0.89 67
10 05/07/2018 16:54:25 80.81,-111.95 65.83 05/07/2018 16:54:49 80.83,-111.94 65.83 1.77 24
11 05/09/2018 21:38:41 80.84, 176.61 65.30 05/09/2018 21:37:27 80.81, 176.69 65.30 3.78 74




NCC Satellite Simultaneous Nadir Overpasses (SNOs) Prediction Service
